Location: Newark
(46.7000°N, 60.6000°W)
Time: 08:56:29
(UTC+00:00)

Vanguard 3 - Pass Details

Date: 07 November 2020
Orbit: 508 x 3262 km, 33.3° (Epoch: 29 November)

Event Time Altitude Azimuth Distance (km) Brightness Sun altitude
Rises 07:28:20 0° 236° (SW) 4,992 - -35.3°
Reaches altitude 10° 07:31:19 10° 230° (SW) 4,326 - -34.8°
Exits shadow 07:37:51 35° 204° (SSW) 3,352 9.9 -33.7°
Maximum altitude 07:43:16 46° 162° (SSE) 3,307 10.1 -32.8°
Drops below altitude 10° 08:00:40 10° 99° (E) 6,170 12.5 -29.9°
Sets 08:05:55 0° 94° (E) 7,230 13.2 -29.0°
